TimeCDT,TemperatureF,Dew PointF,Humidity,Sea Level PressureIn,VisibilityMPH,Wind Direction,Wind SpeedMPH,Gust SpeedMPH,PrecipitationIn,Events,Conditions,WindDirDegrees,DateUTC
12:53 AM,66.9,57.9,73,30.05,10.0,North,9.2,-,N/A,,Mostly Cloudy,350,2013-07-26 05:53:00
1:53 AM,64.0,55.0,73,30.05,10.0,NNW,10.4,-,N/A,,Scattered Clouds,340,2013-07-26 06:53:00
2:53 AM,61.0,53.1,75,30.06,10.0,NNW,10.4,-,N/A,,Mostly Cloudy,330,2013-07-26 07:53:00
3:53 AM,57.9,51.1,78,30.08,10.0,NNW,12.7,-,N/A,,Clear,330,2013-07-26 08:53:00
4:53 AM,55.9,50.0,80,30.10,10.0,NW,8.1,-,N/A,,Clear,310,2013-07-26 09:53:00
5:53 AM,54.0,48.9,83,30.12,10.0,NW,9.2,-,N/A,,Clear,310,2013-07-26 10:53:00
6:53 AM,54.0,48.9,83,30.13,10.0,NW,9.2,-,N/A,,Clear,320,2013-07-26 11:53:00
7:53 AM,57.0,51.1,81,30.15,10.0,NNW,15.0,24.2,N/A,,Clear,330,2013-07-26 12:53:00
8:53 AM,59.0,50.0,72,30.17,10.0,North,16.1,24.2,N/A,,Clear,350,2013-07-26 13:53:00
9:53 AM,60.1,50.0,69,30.20,10.0,NNW,16.1,26.5,N/A,,Mostly Cloudy,340,2013-07-26 14:53:00
10:53 AM,61.0,51.1,70,30.22,10.0,North,15.0,-,N/A,,Overcast,350,2013-07-26 15:53:00
11:01 AM,60.8,50.0,68,30.22,10.0,North,13.8,-,N/A,,Overcast,350,2013-07-26 16:01:00
11:53 AM,63.0,51.1,65,30.21,10.0,North,12.7,-,N/A,,Overcast,350,2013-07-26 16:53:00
12:53 PM,66.0,51.1,59,30.20,10.0,NNE,16.1,24.2,N/A,,Mostly Cloudy,20,2013-07-26 17:53:00
1:53 PM,68.0,52.0,56,30.19,10.0,NNE,15.0,20.7,N/A,,Mostly Cloudy,20,2013-07-26 18:53:00
2:53 PM,71.1,53.1,53,30.19,10.0,North,12.7,20.7,N/A,,Mostly Cloudy,350,2013-07-26 19:53:00
3:53 PM,69.1,50.0,51,30.18,10.0,North,15.0,23.0,N/A,,Mostly Cloudy,10,2013-07-26 20:53:00
4:53 PM,72.0,50.0,46,30.17,10.0,NNW,11.5,-,N/A,,Partly Cloudy,340,2013-07-26 21:53:00
5:53 PM,72.0,48.9,44,30.16,10.0,North,11.5,-,N/A,,Scattered Clouds,350,2013-07-26 22:53:00
6:53 PM,70.0,48.0,46,30.15,10.0,North,12.7,19.6,N/A,,Clear,10,2013-07-26 23:53:00
7:53 PM,66.9,46.9,49,30.16,10.0,North,10.4,-,N/A,,Clear,350,2013-07-27 00:53:00
8:53 PM,60.1,48.9,67,30.16,10.0,North,6.9,-,N/A,,Clear,360,2013-07-27 01:53:00
9:53 PM,55.9,48.0,75,30.17,10.0,North,4.6,-,N/A,,Clear,10,2013-07-27 02:53:00
10:53 PM,53.1,46.9,80,30.18,10.0,North,5.8,-,N/A,,Clear,360,2013-07-27 03:53:00
11:53 PM,53.1,46.9,80,30.18,10.0,NNW,4.6,-,N/A,,Clear,330,2013-07-27 04:53:00